,,Stat5,,Stat1,,Stat2,,Stat3,,Stat4,,Wind1,,Wind1,
time,status,PA1M_AVG,status,PR1M_SUM,status,RH1M_AVG,status,SR1M_AVG,status,TA1M_AVG,status,W1dAve1m,status,W1sAve1m,
2001-10-22, 00:00:00,VALID,917.045,VALID,0,VALID,98.9334,VALID,0.0169808,VALID,19.0694,VALID,356,VALID,0.46658,
2001-10-22, 00:01:00,VALID,917.021,VALID,0,VALID,98.941,VALID,0.0169808,VALID,19.0627,VALID,357,VALID,0.70587,
2001-10-22, 00:02:00,VALID,917.004,VALID,0,VALID,98.9232,VALID,0.0509425,VALID,19.0463,VALID,341,VALID,0.917509,
2001-10-22, 00:03:00,VALID,916.988,VALID,0,VALID,98.9283,VALID,-0.0509425,VALID,19.044,VALID,21,VALID,1.28086,
2001-10-22, 00:04:00,VALID,916.962,VALID,0,VALID,98.9474,VALID,-0.0849042,VALID,19.0704,VALID,17,VALID,1.19118,
2001-10-22, 00:05:00,VALID,916.947,VALID,0,VALID,98.9346,VALID,-0.0679233,VALID,19.0733,VALID,16,VALID,1.01816,
2001-10-22, 00:06:00,VALID,916.938,VALID,0,VALID,98.9474,VALID,-0.0339617,VALID,19.0897,VALID,12,VALID,0.730769,
2001-10-22, 00:07:00,VALID,916.918,VALID,0,VALID,98.9537,VALID,-0.0339617,VALID,19.0959,VALID,24,VALID,0.908705,
2001-10-22, 00:08:00,VALID,916.892,VALID,0,VALID,98.9436,VALID,-0.0509425,VALID,19.1054,VALID,18,VALID,0.534856,
2001-10-22, 00:09:00,VALID,916.878,VALID,0,VALID,98.9397,VALID,-0.0679233,VALID,19.0959,VALID,358,VALID,0.352232,
2001-10-22, 00:10:00,VALID,916.869,VALID,0,VALID,98.9207,VALID,-0.0509425,VALID,19.0796,VALID,331,VALID,0.0284455,
2001-10-22, 00:11:00,VALID,916.874,VALID,0,VALID,98.9029,VALID,-0.0679233,VALID,19.08,VALID,332,VALID,0,
2001-10-22, 00:12:00,VALID,916.848,VALID,0,VALID,98.9118,VALID,-0.0339617,VALID,19.0828,VALID,19,VALID,0.816883,
2001-10-22, 00:13:00,VALID,916.832,VALID,0,VALID,98.9054,VALID,-0.0339617,VALID,19.0962,VALID,358,VALID,0.582933,
2001-10-22, 00:14:00,VALID,916.819,VALID,0,VALID,98.894,VALID,-0.0169808,VALID,19.0699,VALID,357,VALID,0.342311,
2001-10-22, 00:15:00,VALID,916.789,VALID,0,VALID,98.8952,VALID,-0.0339617,VALID,19.0833,VALID,21,VALID,0.911258,
2001-10-22, 00:16:00,VALID,916.764,VALID,0,VALID,98.9105,VALID,-0.0339617,VALID,19.09,VALID,22,VALID,1.07422,
2001-10-22, 00:17:00,VALID,916.739,VALID,0,VALID,98.9143,VALID,0,VALID,19.0793,VALID,27,VALID,1.26162,
2001-10-22, 00:18:00,VALID,916.737,VALID,0,VALID,98.9105,VALID,-0.0509425,VALID,19.0922,VALID,20,VALID,1.04805,
2001-10-22, 00:19:00,VALID,916.744,VALID,0,VALID,98.9041,VALID,-0.0509425,VALID,19.0828,VALID,24,VALID,1.30849,
2001-10-22, 00:20:00,VALID,916.739,VALID,0,VALID,98.9118,VALID,-0.0339617,VALID,19.0828,VALID,21,VALID,1.00391,
2001-10-22, 00:21:00,VALID,916.701,VALID,0,VALID,98.8978,VALID,-0.0509425,VALID,19.0828,VALID,18,VALID,1.40084,
2001-10-22, 00:22:00,VALID,916.689,VALID,0,VALID,98.8927,VALID,-0.0509425,VALID,19.0666,VALID,22,VALID,1.40975,
2001-10-22, 00:23:00,VALID,916.687,VALID,0,VALID,98.8812,VALID,-0.0339617,VALID,19.0637,VALID,21,VALID,0.899038,
2001-10-22, 00:24:00,VALID,916.707,VALID,0,VALID,98.8914,VALID,0,VALID,19.0609,VALID,1,VALID,0.404605,
2001-10-22, 00:25:00,VALID,916.698,VALID,0,VALID,98.894,VALID,-0.0169808,VALID,19.0634,VALID,8,VALID,0.568109,
2001-10-22, 00:26:00,VALID,916.703,VALID,0,VALID,98.899,VALID,0,VALID,19.0771,VALID,20,VALID,0.51582,
2001-10-22, 00:27:00,VALID,916.702,VALID,0,VALID,98.9207,VALID,-0.0849042,VALID,19.09,VALID,20,VALID,0.969172,
2001-10-22, 00:28:00,VALID,916.699,VALID,0,VALID,98.9232,VALID,-0.0849042,VALID,19.0833,VALID,24,VALID,1.14863,
2001-10-22, 00:29:00,VALID,916.696,VALID,0,VALID,98.9359,VALID,-0.0339617,VALID,19.0927,VALID,20,VALID,1.20533,
2001-10-22, 00:30:00,VALID,916.728,VALID,0,VALID,98.9397,VALID,0,VALID,19.0962,VALID,328,VALID,0.760485,
2001-10-22, 00:31:00,VALID,916.735,VALID,0,VALID,98.9346,VALID,-0.0339617,VALID,19.0994,VALID,10,VALID,0.767228,
2001-10-22, 00:32:00,VALID,916.751,VALID,0,VALID,98.9156,VALID,-0.0169808,VALID,19.083,VALID,22,VALID,0.606291,
2001-10-22, 00:33:00,VALID,916.753,VALID,0,VALID,98.9054,VALID,-0.0169808,VALID,19.0731,VALID,3,VALID,0.252404,
2001-10-22, 00:34:00,VALID,916.753,VALID,0,VALID,98.9118,VALID,-0.0339617,VALID,19.0704,VALID,27,VALID,0.520703,
2001-10-22, 00:35:00,VALID,916.737,VALID,0,VALID,98.9372,VALID,-0.0849042,VALID,19.083,VALID,12,VALID,0.571368,
2001-10-22, 00:36:00,VALID,916.734,VALID,0,VALID,98.9512,VALID,0,VALID,19.1156,VALID,15,VALID,0.0501953,
2001-10-22, 00:37:00,VALID,916.722,VALID,0,VALID,98.9499,VALID,-0.0169808,VALID,19.0992,VALID,37,VALID,0.173678,
2001-10-22, 00:38:00,VALID,916.716,VALID,0,VALID,98.9436,VALID,-0.0679233,VALID,19.1089,VALID,21,VALID,0.653372,
2001-10-22, 00:39:00,VALID,916.691,VALID,0,VALID,98.9385,VALID,-0.0509425,VALID,19.1054,VALID,21,VALID,0.723157,
2001-10-22, 00:40:00,VALID,916.682,VALID,0,VALID,98.9385,VALID,-0.0679233,VALID,19.093,VALID,327,VALID,0.61616,
2001-10-22, 00:41:00,VALID,916.676,VALID,0,VALID,98.9156,VALID,-0.0339617,VALID,19.08,VALID,337,VALID,0.903446,
2001-10-22, 00:42:00,VALID,916.636,VALID,0,VALID,98.9334,VALID,-0.0509425,VALID,19.0602,VALID,275,VALID,0.343555,
2001-10-22, 00:43:00,VALID,916.652,VALID,0,VALID,98.9525,VALID,-0.0679233,VALID,19.0696,VALID,333,VALID,0.0390625,
2001-10-22, 00:44:00,VALID,916.639,VALID,0,VALID,98.9474,VALID,-0.0339617,VALID,19.0766,VALID,16,VALID,0.105469,
2001-10-22, 00:45:00,VALID,916.618,VALID,0,VALID,98.9486,VALID,-0.0339617,VALID,19.0798,VALID,13,VALID,0.0905449,
2001-10-22, 00:46:00,VALID,916.615,VALID,0,VALID,98.9512,VALID,-0.0339617,VALID,19.0629,VALID,28,VALID,0.0678454,
2001-10-22, 00:47:00,VALID,916.611,VALID,0,VALID,98.9563,VALID,0,VALID,19.08,VALID,30,VALID,0.000801282,
2001-10-22, 00:48:00,VALID,916.603,VALID,0,VALID,98.9664,VALID,0,VALID,19.0826,VALID,15,VALID,0.257607,
2001-10-22, 00:49:00,VALID,916.59,VALID,0,VALID,98.9753,VALID,0,VALID,19.0758,VALID,15,VALID,0.0791266,
2001-10-22, 00:50:00,VALID,916.563,VALID,0,VALID,98.9817,VALID,0,VALID,19.0952,VALID,16,VALID,0,
2001-10-22, 00:51:00,VALID,916.539,VALID,0,VALID,99.0097,VALID,-0.0169808,VALID,19.1148,VALID,35,VALID,0,
2001-10-22, 00:52:00,VALID,916.516,VALID,0,VALID,98.9792,VALID,0,VALID,19.1148,VALID,218,VALID,0,
2001-10-22, 00:53:00,VALID,916.491,VALID,0,VALID,98.9499,VALID,0,VALID,19.0724,VALID,214,VALID,0.421875,
2001-10-22, 00:54:00,VALID,916.471,VALID,0,VALID,98.9283,VALID,0,VALID,19.0567,VALID,267,VALID,0.20847,
2001-10-22, 00:55:00,VALID,916.447,VALID,0,VALID,98.9321,VALID,0,VALID,19.0373,VALID,280,VALID,0.0741186,
2001-10-22, 00:56:00,VALID,916.433,VALID,0,VALID,98.9486,VALID,0,VALID,19.0438,VALID,280,VALID,0,
2001-10-22, 00:57:00,VALID,916.416,VALID,0,VALID,98.9537,VALID,-0.0169808,VALID,19.0436,VALID,275,VALID,0.0010016,
2001-10-22, 00:58:00,VALID,916.412,VALID,0,VALID,98.9677,VALID,0,VALID,19.0473,VALID,264,VALID,0.0162109,
2001-10-22, 00:59:00,VALID,916.402,VALID,0,VALID,98.9741,VALID,-0.0169808,VALID,19.0532,VALID,285,VALID,0,
2001-10-22, 01:00:00,VALID,916.393,VALID,0,VALID,98.983,VALID,0,VALID,19.0632,VALID,32,VALID,0.310352,
2001-10-22, 01:01:00,VALID,916.393,VALID,0,VALID,98.9779,VALID,0.0169808,VALID,19.0798,VALID,15,VALID,0.314704,
2001-10-22, 01:02:00,VALID,916.382,VALID,0,VALID,98.9792,VALID,0,VALID,19.0629,VALID,22,VALID,0.732525,
2001-10-22, 01:03:00,VALID,916.37,VALID,0,VALID,99.002,VALID,-0.0169808,VALID,19.0793,VALID,27,VALID,0.686498,
2001-10-22, 01:04:00,VALID,916.359,VALID,0,VALID,99.0097,VALID,0.0169808,VALID,19.0957,VALID,344,VALID,0.200658,
2001-10-22, 01:05:00,VALID,916.365,VALID,0,VALID,98.9995,VALID,-0.0169808,VALID,19.0855,VALID,332,VALID,0,
2001-10-22, 01:06:00,VALID,916.354,VALID,0,VALID,98.9893,VALID,0,VALID,19.0793,VALID,332,VALID,0,
2001-10-22, 01:07:00,VALID,916.354,VALID,0,VALID,98.997,VALID,0.0169808,VALID,19.0791,VALID,332,VALID,0,
2001-10-22, 01:08:00,VALID,916.332,VALID,0,VALID,98.9868,VALID,0.0169808,VALID,19.0662,VALID,337,VALID,0.015625,
2001-10-22, 01:09:00,VALID,916.31,VALID,0,VALID,98.9868,VALID,-0.0169808,VALID,19.0763,VALID,20,VALID,0.300881,
2001-10-22, 01:10:00,VALID,916.288,VALID,0,VALID,99.0008,VALID,0,VALID,19.0826,VALID,337,VALID,0.117804,
2001-10-22, 01:11:00,VALID,916.284,VALID,0,VALID,98.983,VALID,0,VALID,19.0498,VALID,180,VALID,0.109575,
2001-10-22, 01:12:00,VALID,916.277,VALID,0,VALID,98.9804,VALID,0,VALID,19.0468,VALID,349,VALID,0.186678,
2001-10-22, 01:13:00,VALID,916.282,VALID,0,VALID,98.9868,VALID,-0.0169808,VALID,19.0433,VALID,349,VALID,0,
2001-10-22, 01:14:00,VALID,916.27,VALID,0,VALID,98.9868,VALID,0,VALID,19.0572,VALID,349,VALID,0.00136719,
2001-10-22, 01:15:00,VALID,916.247,VALID,0,VALID,99.0046,VALID,0.0169808,VALID,19.057,VALID,349,VALID,0,
2001-10-22, 01:16:00,VALID,916.237,VALID,0,VALID,99.002,VALID,0,VALID,19.0398,VALID,315,VALID,0,
2001-10-22, 01:17:00,VALID,916.217,VALID,0,VALID,98.9919,VALID,0,VALID,19.0503,VALID,276,VALID,0,
2001-10-22, 01:18:00,VALID,916.202,VALID,0,VALID,99.0084,VALID,-0.0169808,VALID,19.0475,VALID,346,VALID,0.331003,
2001-10-22, 01:19:00,VALID,916.198,VALID,0,VALID,99.0173,VALID,-0.0169808,VALID,19.0505,VALID,340,VALID,0.727163,
2001-10-22, 01:20:00,VALID,916.194,VALID,0,VALID,99.0211,VALID,-0.0169808,VALID,19.0436,VALID,196,VALID,0.270354,
2001-10-22, 01:21:00,VALID,916.165,VALID,0,VALID,98.9906,VALID,-0.0169808,VALID,19.0341,VALID,210,VALID,0.196715,
2001-10-22, 01:22:00,VALID,916.164,VALID,0,VALID,98.983,VALID,-0.0169808,VALID,19.0182,VALID,215,VALID,0.0269531,
2001-10-22, 01:23:00,VALID,916.146,VALID,0,VALID,98.9817,VALID,0,VALID,19.008,VALID,253,VALID,0.0466639,
2001-10-22, 01:24:00,VALID,916.131,VALID,0,VALID,99.0059,VALID,0.0169808,VALID,19.0272,VALID,275,VALID,0.0177734,
2001-10-22, 01:25:00,VALID,916.114,VALID,0,VALID,99.0237,VALID,0,VALID,19.0366,VALID,101,VALID,0.0979567,
2001-10-22, 01:26:00,VALID,916.104,VALID,0,VALID,99.016,VALID,-0.0169808,VALID,19.0532,VALID,138,VALID,0,
2001-10-22, 01:27:00,VALID,916.081,VALID,0,VALID,99.0071,VALID,0,VALID,19.0408,VALID,102,VALID,0.347155,
2001-10-22, 01:28:00,VALID,916.076,VALID,0,VALID,98.9995,VALID,-0.0169808,VALID,19.0413,VALID,314,VALID,0.313939,
2001-10-22, 01:29:00,VALID,916.042,VALID,0,VALID,98.9804,VALID,0,VALID,19.012,VALID,208,VALID,0.386218,
2001-10-22, 01:30:00,VALID,916.016,VALID,0,VALID,98.9779,VALID,0,VALID,19.0053,VALID,182,VALID,0.571484,
2001-10-22, 01:31:00,VALID,916,VALID,0,VALID,98.9715,VALID,0.0169808,VALID,19.0048,VALID,233,VALID,0.493454,
2001-10-22, 01:32:00,VALID,916.008,VALID,0,VALID,98.9512,VALID,-0.0169808,VALID,18.9787,VALID,258,VALID,0.368164,
2001-10-22, 01:33:00,VALID,916.002,VALID,0,VALID,98.9525,VALID,0.0169808,VALID,18.966,VALID,297,VALID,0.933694,
2001-10-22, 01:34:00,VALID,915.988,VALID,0,VALID,98.9614,VALID,0,VALID,18.9698,VALID,321,VALID,0.0970395,
2001-10-22, 01:35:00,VALID,915.989,VALID,0,VALID,98.9855,VALID,0,VALID,18.9988,VALID,342,VALID,0.282252,
2001-10-22, 01:36:00,VALID,915.984,VALID,0,VALID,99.0059,VALID,-0.0169808,VALID,19.0152,VALID,2,VALID,0.188322,
2001-10-22, 01:37:00,VALID,915.981,VALID,0,VALID,99.0148,VALID,0,VALID,19.0147,VALID,5,VALID,0,
2001-10-22, 01:38:00,VALID,915.971,VALID,0,VALID,99.0211,VALID,-0.0169808,VALID,19.0339,VALID,8,VALID,0,
2001-10-22, 01:39:00,VALID,915.966,VALID,0,VALID,99.0415,VALID,0,VALID,19.0632,VALID,5,VALID,0.415329,
2001-10-22, 01:40:00,VALID,915.946,VALID,0,VALID,99.0351,VALID,0,VALID,19.0766,VALID,21,VALID,0.564453,
2001-10-22, 01:41:00,VALID,915.942,VALID,0,VALID,99.0173,VALID,0,VALID,19.0604,VALID,29,VALID,0.285256,
2001-10-22, 01:42:00,VALID,915.945,VALID,0,VALID,99.0224,VALID,0,VALID,19.053,VALID,29,VALID,0,
2001-10-22, 01:43:00,VALID,915.944,VALID,0,VALID,99.016,VALID,0,VALID,19.0567,VALID,29,VALID,0,
2001-10-22, 01:44:00,VALID,915.949,VALID,0,VALID,99.0008,VALID,0,VALID,19.0505,VALID,16,VALID,0,
2001-10-22, 01:45:00,VALID,915.956,VALID,0,VALID,98.997,VALID,0,VALID,19.0276,VALID,26,VALID,0.25621,
2001-10-22, 01:46:00,VALID,915.936,VALID,0,VALID,98.9881,VALID,0.0169808,VALID,19.0244,VALID,278,VALID,0.480273,
2001-10-22, 01:47:00,VALID,915.946,VALID,0,VALID,98.9931,VALID,0,VALID,19.018,VALID,18,VALID,0.197635,
2001-10-22, 01:48:00,VALID,915.943,VALID,0,VALID,98.9931,VALID,0,VALID,19.0209,VALID,356,VALID,0.0605469,
2001-10-22, 01:49:00,VALID,915.935,VALID,0,VALID,98.9957,VALID,0,VALID,19.0043,VALID,334,VALID,0.0116186,
2001-10-22, 01:50:00,VALID,915.925,VALID,0,VALID,98.9906,VALID,0,VALID,19.011,VALID,334,VALID,0,
2001-10-22, 01:51:00,VALID,915.924,VALID,0,VALID,98.9741,VALID,0,VALID,18.9854,VALID,314,VALID,0.0516827,
2001-10-22, 01:52:00,VALID,915.918,VALID,0,VALID,99.0046,VALID,0.0169808,VALID,18.9949,VALID,353,VALID,0.0888158,
2001-10-22, 01:53:00,VALID,915.927,VALID,0,VALID,99.0249,VALID,0,VALID,19.0334,VALID,39,VALID,0,
2001-10-22, 01:54:00,VALID,915.943,VALID,0,VALID,99.03,VALID,0,VALID,19.0369,VALID,30,VALID,0,
2001-10-22, 01:55:00,VALID,915.956,VALID,0,VALID,99.0237,VALID,0,VALID,19.0629,VALID,27,VALID,0.224029,
2001-10-22, 01:56:00,VALID,915.947,VALID,0,VALID,99.0287,VALID,0,VALID,19.0562,VALID,26,VALID,0.155078,
2001-10-22, 01:57:00,VALID,915.941,VALID,0,VALID,99.03,VALID,0,VALID,19.0629,VALID,26,VALID,0.230569,
2001-10-22, 01:58:00,VALID,915.934,VALID,0,VALID,99.0249,VALID,0.0169808,VALID,19.056,VALID,266,VALID,0.235197,
2001-10-22, 01:59:00,VALID,915.936,VALID,0,VALID,98.9931,VALID,0,VALID,19.0339,VALID,235,VALID,0.0526843,
2001-10-22, 02:00:00,VALID,915.956,VALID,0,VALID,98.9881,VALID,0,VALID,19.0247,VALID,244,VALID,0,
2001-10-22, 02:01:00,VALID,915.945,VALID,0,VALID,98.9944,VALID,0,VALID,19.0343,VALID,334,VALID,0,
2001-10-22, 02:02:00,VALID,915.924,VALID,0,VALID,99.0084,VALID,-0.0169808,VALID,19.0336,VALID,356,VALID,0.0369141,
2001-10-22, 02:03:00,VALID,915.916,VALID,0,VALID,99.0351,VALID,0,VALID,19.0567,VALID,19,VALID,0.0591216,
2001-10-22, 02:04:00,VALID,915.92,VALID,0,VALID,99.0122,VALID,-0.0339617,VALID,19.0572,VALID,33,VALID,0.0240234,
2001-10-22, 02:05:00,VALID,915.927,VALID,0,VALID,99.0046,VALID,-0.0169808,VALID,19.0366,VALID,119,VALID,0.1248,
2001-10-22, 02:06:00,VALID,915.934,VALID,0,VALID,98.9906,VALID,0,VALID,19.0207,VALID,197,VALID,0.278988,
2001-10-22, 02:07:00,VALID,915.936,VALID,0,VALID,98.9868,VALID,-0.0169808,VALID,19.0142,VALID,196,VALID,0.539663,
2001-10-22, 02:08:00,VALID,915.942,VALID,0,VALID,98.9741,VALID,0,VALID,18.9951,VALID,215,VALID,0.402755,
2001-10-22, 02:09:00,VALID,915.936,VALID,0,VALID,98.9703,VALID,0,VALID,18.9857,VALID,222,VALID,0.63121,
2001-10-22, 02:10:00,VALID,915.938,VALID,0,VALID,98.9703,VALID,0,VALID,18.9827,VALID,228,VALID,0.662695,
2001-10-22, 02:11:00,VALID,915.921,VALID,0,VALID,98.969,VALID,-0.0169808,VALID,18.973,VALID,216,VALID,0.526182,
2001-10-22, 02:12:00,VALID,915.908,VALID,0,VALID,98.9563,VALID,0,VALID,18.9658,VALID,200,VALID,0.934961,
2001-10-22, 02:13:00,VALID,915.906,VALID,0,VALID,98.9626,VALID,-0.0169808,VALID,18.9723,VALID,215,VALID,0.623598,
2001-10-22, 02:14:00,VALID,915.897,VALID,0,VALID,98.955,VALID,-0.0169808,VALID,18.9797,VALID,229,VALID,1.05181,
2001-10-22, 02:15:00,VALID,915.883,VALID,0,VALID,98.9232,VALID,0,VALID,18.9467,VALID,243,VALID,0.76242,
2001-10-22, 02:16:00,VALID,915.875,VALID,0,VALID,98.913,VALID,-0.0169808,VALID,18.9536,VALID,276,VALID,0.787007,
2001-10-22, 02:17:00,VALID,915.857,VALID,0,VALID,98.9092,VALID,-0.0169808,VALID,18.9564,VALID,317,VALID,0.59976,
2001-10-22, 02:18:00,VALID,915.82,VALID,0,VALID,98.9525,VALID,0,VALID,18.9889,VALID,353,VALID,0.816016,
2001-10-22, 02:19:00,VALID,915.787,VALID,0.2,VALID,98.9283,VALID,-0.0339617,VALID,18.9852,VALID,14,VALID,1.11803,
2001-10-22, 02:20:00,VALID,915.773,VALID,0,VALID,98.9385,VALID,0,VALID,19.0043,VALID,20,VALID,1.08672,
2001-10-22, 02:21:00,VALID,915.786,VALID,0,VALID,98.9575,VALID,0,VALID,19.0242,VALID,17,VALID,0.742788,
2001-10-22, 02:22:00,VALID,915.817,VALID,0,VALID,98.9372,VALID,0,VALID,19.0142,VALID,11,VALID,0.355674,
2001-10-22, 02:23:00,VALID,915.82,VALID,0,VALID,98.9448,VALID,0,VALID,19.0276,VALID,11,VALID,0.342548,
2001-10-22, 02:24:00,VALID,915.825,VALID,0,VALID,98.927,VALID,0,VALID,19.0336,VALID,1,VALID,0,
2001-10-22, 02:25:00,VALID,915.822,VALID,0,VALID,98.9346,VALID,0,VALID,19.0371,VALID,292,VALID,0,
2001-10-22, 02:26:00,VALID,915.84,VALID,0,VALID,98.9118,VALID,0,VALID,19.0209,VALID,218,VALID,0,
2001-10-22, 02:27:00,VALID,915.834,VALID,0,VALID,98.9067,VALID,0,VALID,19.0013,VALID,218,VALID,0,
2001-10-22, 02:28:00,VALID,915.82,VALID,0,VALID,98.9029,VALID,0.0169808,VALID,18.9981,VALID,2,VALID,0,
2001-10-22, 02:29:00,VALID,915.826,VALID,0,VALID,98.9258,VALID,0.0169808,VALID,19.0212,VALID,12,VALID,0.332933,
2001-10-22, 02:30:00,VALID,915.818,VALID,0,VALID,98.9232,VALID,0,VALID,19.0274,VALID,26,VALID,0.603002,
2001-10-22, 02:31:00,VALID,915.801,VALID,0,VALID,98.9308,VALID,0,VALID,19.0304,VALID,26,VALID,0.693309,
2001-10-22, 02:32:00,VALID,915.802,VALID,0,VALID,98.9385,VALID,-0.0169808,VALID,19.0436,VALID,25,VALID,0.376028,
2001-10-22, 02:33:00,VALID,915.804,VALID,0,VALID,98.9436,VALID,0,VALID,19.0403,VALID,24,VALID,0,
2001-10-22, 02:34:00,VALID,915.795,VALID,0,VALID,98.9232,VALID,0,VALID,19.0214,VALID,21,VALID,0,
2001-10-22, 02:35:00,VALID,915.797,VALID,0,VALID,98.9143,VALID,-0.0169808,VALID,19.0117,VALID,202,VALID,0.273015,
2001-10-22, 02:36:00,VALID,915.779,VALID,0,VALID,98.9054,VALID,-0.0169808,VALID,19.0058,VALID,238,VALID,0.33457,
2001-10-22, 02:37:00,VALID,915.779,VALID,0,VALID,98.8787,VALID,0,VALID,18.9598,VALID,275,VALID,0.099359,
2001-10-22, 02:38:00,VALID,915.756,VALID,0,VALID,98.8978,VALID,0,VALID,18.969,VALID,357,VALID,0.292558,
2001-10-22, 02:39:00,VALID,915.715,VALID,0,VALID,98.9156,VALID,0.0169808,VALID,18.9887,VALID,20,VALID,0.960938,
2001-10-22, 02:40:00,VALID,915.683,VALID,0,VALID,98.9168,VALID,0.0169808,VALID,19.0018,VALID,24,VALID,1.38734,
2001-10-22, 02:41:00,VALID,915.671,VALID,0,VALID,98.9105,VALID,0,VALID,18.9983,VALID,27,VALID,1.1895,
2001-10-22, 02:42:00,VALID,915.649,VALID,0,VALID,98.913,VALID,-0.0169808,VALID,18.9924,VALID,25,VALID,1.19219,
2001-10-22, 02:43:00,VALID,915.645,VALID,0,VALID,98.9143,VALID,-0.0169808,VALID,19.0053,VALID,29,VALID,0.584882,
2001-10-22, 02:44:00,VALID,915.657,VALID,0,VALID,98.9334,VALID,0,VALID,19.0016,VALID,48,VALID,0.0208984,
2001-10-22, 02:45:00,VALID,915.671,VALID,0,VALID,98.9296,VALID,0,VALID,18.9981,VALID,200,VALID,0.219351,
2001-10-22, 02:46:00,VALID,915.693,VALID,0,VALID,98.9016,VALID,0,VALID,18.9859,VALID,234,VALID,0.23273,
2001-10-22, 02:47:00,VALID,915.674,VALID,0,VALID,98.9156,VALID,0,VALID,18.9792,VALID,230,VALID,0.0843349,
2001-10-22, 02:48:00,VALID,915.673,VALID,0,VALID,98.9016,VALID,0,VALID,18.9633,VALID,219,VALID,0,
2001-10-22, 02:49:00,VALID,915.658,VALID,0,VALID,98.9181,VALID,0,VALID,18.9762,VALID,219,VALID,0,
2001-10-22, 02:50:00,VALID,915.641,VALID,0,VALID,98.9474,VALID,0.0169808,VALID,18.9921,VALID,219,VALID,0,
2001-10-22, 02:51:00,VALID,915.62,VALID,0,VALID,98.9486,VALID,0,VALID,19.0018,VALID,219,VALID,0,
2001-10-22, 02:52:00,VALID,915.612,VALID,0,VALID,98.9321,VALID,-0.0339617,VALID,18.9956,VALID,219,VALID,0,
2001-10-22, 02:53:00,VALID,915.601,VALID,0,VALID,98.9385,VALID,-0.0169808,VALID,18.9921,VALID,219,VALID,0,
2001-10-22, 02:54:00,VALID,915.598,VALID,0,VALID,98.9118,VALID,0,VALID,18.9852,VALID,219,VALID,0,
2001-10-22, 02:55:00,VALID,915.587,VALID,0,VALID,98.9245,VALID,0.0169808,VALID,18.969,VALID,219,VALID,0,
2001-10-22, 02:56:00,VALID,915.561,VALID,0,VALID,98.9194,VALID,0.0169808,VALID,18.9698,VALID,219,VALID,0,
2001-10-22, 02:57:00,VALID,915.557,VALID,0,VALID,98.9105,VALID,0,VALID,18.9534,VALID,219,VALID,0,
2001-10-22, 02:58:00,VALID,915.533,VALID,0,VALID,98.9079,VALID,-0.0339617,VALID,18.9506,VALID,219,VALID,0,
2001-10-22, 02:59:00,VALID,915.536,VALID,0,VALID,98.9092,VALID,-0.0339617,VALID,18.9407,VALID,219,VALID,0,
2001-10-22, 03:00:00,VALID,915.541,VALID,0,VALID,98.9118,VALID,0,VALID,18.9444,VALID,330,VALID,0.227148,
2001-10-22, 03:01:00,VALID,915.522,VALID,0,VALID,98.8901,VALID,0,VALID,18.928,VALID,227,VALID,0.222957,
2001-10-22, 03:02:00,VALID,915.52,VALID,0,VALID,98.9003,VALID,0,VALID,18.9278,VALID,268,VALID,0.207442,
2001-10-22, 03:03:00,VALID,915.492,VALID,0,VALID,98.9143,VALID,0.0169808,VALID,18.9342,VALID,17,VALID,0.560296,
2001-10-22, 03:04:00,VALID,915.502,VALID,0,VALID,98.9219,VALID,0,VALID,18.9404,VALID,38,VALID,0.267681,
2001-10-22, 03:05:00,VALID,915.507,VALID,0,VALID,98.9308,VALID,0,VALID,18.9402,VALID,28,VALID,0.0258413,
2001-10-22, 03:06:00,VALID,915.494,VALID,0,VALID,98.9321,VALID,0,VALID,18.9407,VALID,56,VALID,0.0675781,
2001-10-22, 03:07:00,VALID,915.487,VALID,0,VALID,98.8851,VALID,-0.0339617,VALID,18.9312,VALID,54,VALID,0,
2001-10-22, 03:08:00,VALID,915.469,VALID,0,VALID,98.8812,VALID,-0.0169808,VALID,18.9183,VALID,102,VALID,0.0615234,
2001-10-22, 03:09:00,VALID,915.467,VALID,0,VALID,98.88,VALID,-0.0169808,VALID,18.9084,VALID,135,VALID,0,
2001-10-22, 03:10:00,VALID,915.506,VALID,0,VALID,98.8838,VALID,0,VALID,18.8987,VALID,135,VALID,0,
2001-10-22, 03:11:00,VALID,915.506,VALID,0,VALID,98.894,VALID,0,VALID,18.8915,VALID,135,VALID,0,
2001-10-22, 03:12:00,VALID,915.499,VALID,0,VALID,98.9105,VALID,-0.0169808,VALID,18.9186,VALID,101,VALID,0.021176,
2001-10-22, 03:13:00,VALID,915.497,VALID,0,VALID,98.913,VALID,0,VALID,18.9213,VALID,348,VALID,0.0410657,
2001-10-22, 03:14:00,VALID,915.516,VALID,0,VALID,98.9029,VALID,0,VALID,18.9146,VALID,300,VALID,0.713281,
2001-10-22, 03:15:00,VALID,915.515,VALID,0,VALID,98.9181,VALID,-0.0339617,VALID,18.9213,VALID,18,VALID,0.429899,
2001-10-22, 03:16:00,VALID,915.531,VALID,0,VALID,98.9296,VALID,0,VALID,18.9275,VALID,24,VALID,0.0369141,
2001-10-22, 03:17:00,VALID,915.557,VALID,0,VALID,98.9245,VALID,-0.0169808,VALID,18.9345,VALID,44,VALID,0,
2001-10-22, 03:18:00,VALID,915.551,VALID,0,VALID,98.9397,VALID,-0.101885,VALID,18.9329,VALID,34,VALID,0.194285,
2001-10-22, 03:19:00,VALID,915.558,VALID,0,VALID,98.9741,VALID,-0.101885,VALID,18.9585,VALID,38,VALID,0.0458734,
2001-10-22, 03:20:00,VALID,915.567,VALID,0,VALID,98.9715,VALID,-0.101885,VALID,18.9712,VALID,48,VALID,0.00205592,
2001-10-22, 03:21:00,VALID,915.574,VALID,0,VALID,98.955,VALID,-0.101885,VALID,18.9615,VALID,48,VALID,0,
2001-10-22, 03:22:00,VALID,915.593,VALID,0,VALID,98.9461,VALID,-0.118866,VALID,18.9516,VALID,35,VALID,0.0394531,
2001-10-22, 03:23:00,VALID,915.599,VALID,0,VALID,98.9308,VALID,-0.101885,VALID,18.9483,VALID,136,VALID,0.0762247,
2001-10-22, 03:24:00,VALID,915.615,VALID,0,VALID,98.9334,VALID,-0.101885,VALID,18.9488,VALID,137,VALID,0,
2001-10-22, 03:25:00,VALID,915.625,VALID,0,VALID,98.9372,VALID,-0.101885,VALID,18.9518,VALID,50,VALID,0.0392628,
2001-10-22, 03:26:00,VALID,915.621,VALID,0,VALID,98.9385,VALID,-0.101885,VALID,18.9617,VALID,25,VALID,0,
2001-10-22, 03:27:00,VALID,915.611,VALID,0,VALID,98.9499,VALID,-0.101885,VALID,18.9585,VALID,321,VALID,0.0440705,
2001-10-22, 03:28:00,VALID,915.603,VALID,0,VALID,98.9588,VALID,-0.101885,VALID,18.9613,VALID,349,VALID,0,
2001-10-22, 03:29:00,VALID,915.594,VALID,0,VALID,98.9677,VALID,-0.135847,VALID,18.9809,VALID,16,VALID,0.0308494,
2001-10-22, 03:30:00,VALID,915.568,VALID,0,VALID,98.9499,VALID,-0.135847,VALID,18.9615,VALID,340,VALID,0.00273437,
2001-10-22, 03:31:00,VALID,915.554,VALID,0,VALID,98.9207,VALID,-0.101885,VALID,18.9488,VALID,23,VALID,0.34924,
2001-10-22, 03:32:00,VALID,915.549,VALID,0,VALID,98.9258,VALID,-0.101885,VALID,18.9518,VALID,36,VALID,0.137109,
2001-10-22, 03:33:00,VALID,915.557,VALID,0,VALID,98.9372,VALID,0,VALID,18.9506,VALID,36,VALID,0,
2001-10-22, 03:34:00,VALID,915.555,VALID,0,VALID,98.9308,VALID,0,VALID,18.9469,VALID,38,VALID,0.0929276,
2001-10-22, 03:35:00,VALID,915.537,VALID,0,VALID,98.9474,VALID,-0.0169808,VALID,18.9538,VALID,26,VALID,0.599559,
2001-10-22, 03:36:00,VALID,915.54,VALID,0,VALID,98.9575,VALID,0,VALID,18.9536,VALID,20,VALID,0.0078125,
2001-10-22, 03:37:00,VALID,915.548,VALID,0,VALID,98.9575,VALID,0,VALID,18.9668,VALID,42,VALID,0.0795272,
2001-10-22, 03:38:00,VALID,915.553,VALID,0,VALID,98.9308,VALID,-0.0509425,VALID,18.9568,VALID,222,VALID,0.436719,
2001-10-22, 03:39:00,VALID,915.527,VALID,0,VALID,98.9423,VALID,0,VALID,18.9571,VALID,26,VALID,0.34734,